STARLINK AA

Last updated on June 19, 2020, 12:02 a.m. UTC

1 45754U 20038AA  20170.66667824  .00094826  11274-4  11858-3 0  9997
2 45754  52.9998 272.2370 0111324  69.3474  28.4132 15.96142824  1976

Satellite is not in orbit.